Regional Weather Roundup
Issued by NWS

Home | Current Version | Previous Version | Graphics & Text | Print | Product List | Glossary On
Versions: 1 2 3 4 5 6 7 8 9 10 11 12 13 14 15 16 17 18 19 20 21 22 23 24 25 26 27 28 29 30 31 32 33 34 35 36 37 38 39 40 41 42 43 44 45 46 47 48 49 50
000
ASUS43 KIND 230000
RWRIN

WEATHER ROUNDUP FOR INDIANA
NATIONAL WEATHER SERVICE INDIANAPOLIS IN
800 PM EDT MON MAY 22 2017

NOTE: "FAIR" INDICATES FEW OR NO CLOUDS BELOW 12,000 FEET WITH NO
SIGNIFICANT WEATHER AND/OR OBSTRUCTIONS TO VISIBILITY.

* - STATION DOES NOT REPORT WEATHER SUCH AS PRECIPITATION OR FOG.

+ - STATION NOT QUALITY CONTROLLED BY THE NATIONAL WEATHER SERVICE.
    USE DATA WITH CAUTION...ESPECIALLY DEWPOINT AND RELATIVE
    HUMIDITY OBSERVATIONS.

INZ001>003-010>013-019-020-230100-
NORTHWEST INDIANA

CITY           SKY/WX    TMP DP  RH WIND       PRES   REMARKS
GARY /AIRPORT/ CLOUDY    72  32  23 S17       29.92S
MONTICELLO +   CLOUDY    68  47  46 SW9       29.98R
6HR MIN TEMP:  67; 6HR MAX TEMP:  72;


$$

LMZ046-743>745-230100-
SOUTHERN LAKE MICHIGAN

STATION/POSITION TIME  TEMP    WIND        PRES    WAVE
                       AIR SEA DIR/SP/G            HT
                 (UTC) (F)     (DEG/KT/KT) (MB)    (FT)
BURNS HARBOR     2340   70     210/ 13/ 22 1013.5S
MICHIGAN CITY    2330   70     190/ 17/ 23   N/A
5NW MICH CITY    2350   64 53  210/ 16/ 21   N/A     2

$$

INZ004-005-014>016-021>024-230100-
NORTH CENTRAL INDIANA

CITY           SKY/WX    TMP DP  RH WIND       PRES   REMARKS
GOSHEN         PTCLDY    67  45  45 S12       29.96S
6HR MIN TEMP:  65; 6HR MAX TEMP:  71;

SOUTH BEND     CLOUDY    68  46  45 SW14      29.94F
6HR MIN TEMP:  65; 6HR MAX TEMP:  71;


$$

INZ006>009-017-018-025>027-230100-
NORTHEAST INDIANA

CITY           SKY/WX    TMP DP  RH WIND       PRES   REMARKS
ANGOLA *+      CLEAR     66  57  72 SW6       29.97S
FORT WAYNE     PTCLDY    68  48  48 SW10      30.00S
6HR MIN TEMP:  66; 6HR MAX TEMP:  70;

KENDALLVILLE + PTCLDY    65  48  53 SW9       29.98S

$$

INZ028-029-035-036-043>045-051>053-230100-
WEST CENTRAL INDIANA

CITY           SKY/WX    TMP DP  RH WIND       PRES   REMARKS
CRAWFORDSVL +  MOSUNNY   65  48  53 S7        30.00S
6HR MIN TEMP:  64; 6HR MAX TEMP:  69;

LAFAYETTE      CLOUDY    68  46  45 SW3       29.98F
6HR MIN TEMP:  67; 6HR MAX TEMP:  71;

TERRE HAUTE    SUNNY     70  42  36 SW5       29.98F
6HR MIN TEMP:  69; 6HR MAX TEMP:  73;


$$

INZ030>032-037>040-046>048-054>057-064-065-230100-
CENTRAL INDIANA

CITY           SKY/WX    TMP DP  RH WIND       PRES   REMARKS
COLUMBUS       PTCLDY    68  37  32 S3        30.00F
INDIANAPOLIS   PTCLDY    68  45  43 S6        30.00S
6HR MIN TEMP:  66; 6HR MAX TEMP:  71;

-EAGLE CREEK   CLEAR     70  43  37 SW6       29.99S
6HR MIN TEMP:  66; 6HR MAX TEMP:  71;

KOKOMO +       CLEAR     67  50  54 S7        30.01S
6HR MIN TEMP:  66; 6HR MAX TEMP:  70;

SHELBYVILLE    CLEAR     71  43  36 S7        29.99F
6HR MIN TEMP:  67; 6HR MAX TEMP:  73;


$$

INZ033-034-041-042-049-050-058-059-230100-
EAST CENTRAL INDIANA

CITY           SKY/WX    TMP DP  RH WIND       PRES   REMARKS
MUNCIE         CLEAR     70  42  36 SW5       30.01R
6HR MIN TEMP:  66; 6HR MAX TEMP:  72;

RICHMOND +     CLEAR     66  45  45 S7        30.04R

$$

INZ060-061-067>069-081>083-085>088-230100-
SOUTHWEST INDIANA

CITY           SKY/WX    TMP DP  RH WIND       PRES   REMARKS
EVANSVILLE     CLOUDY    71  47  42 VRB3      29.98F
6HR MIN TEMP:  71; 6HR MAX TEMP:  75;

HUNTINGBURG *+ CLOUDY    68  55  63 CALM      30.01R
6HR MIN TEMP:  67; 6HR MAX TEMP:  72;


$$

INZ062-063-066-070>080-084-089>092-230100-
SOUTH CENTRAL AND SOUTHEAST INDIANA

CITY           SKY/WX    TMP DP  RH WIND       PRES   REMARKS
BLOOMINGTON    CLEAR     70  45  40 SE5       29.99F
6HR MIN TEMP:  68; 6HR MAX TEMP:  72;

MADISON *+     CLEAR     64  45  48 CALM      30.04F
SEYMOUR +      CLOUDY    70  46  43 CALM      30.01F

$$





USA.gov is the U.S. government's official web portal to all federal, state and local government web resources and services.